TimeMST,TemperatureF,Dew PointF,Humidity,Sea Level PressureIn,VisibilityMPH,Wind Direction,Wind SpeedMPH,Gust SpeedMPH,PrecipitationIn,Events,Conditions,WindDirDegrees,DateUTC
12:53 AM,66.0,55.9,70,29.97,10.0,Calm,Calm,-,N/A,,Clear,0,2013-08-25 07:53:00
1:53 AM,64.9,55.9,73,29.96,10.0,Calm,Calm,-,N/A,,Clear,0,2013-08-25 08:53:00
2:53 AM,64.9,57.0,75,29.95,10.0,Calm,Calm,-,N/A,,Scattered Clouds,0,2013-08-25 09:53:00
3:53 AM,64.9,57.0,75,29.94,10.0,SSW,3.5,-,0.00,,Mostly Cloudy,200,2013-08-25 10:53:00
4:53 AM,66.9,57.0,70,29.94,10.0,SSE,5.8,-,N/A,,Overcast,150,2013-08-25 11:53:00
5:53 AM,63.0,60.1,90,29.98,4.0,SE,8.1,-,0.02,Rain,Light Rain,140,2013-08-25 12:53:00
6:53 AM,63.0,61.0,93,30.00,10.0,SSE,8.1,-,0.05,Rain,Light Rain,150,2013-08-25 13:53:00
7:53 AM,63.0,60.1,90,30.03,10.0,SSE,8.1,-,0.01,Rain,Light Rain,150,2013-08-25 14:53:00
8:53 AM,63.0,59.0,87,30.04,7.0,SE,4.6,-,0.08,Rain,Light Rain,140,2013-08-25 15:53:00
9:53 AM,63.0,60.1,90,30.06,5.0,SSW,4.6,-,0.15,Rain,Light Rain,200,2013-08-25 16:53:00
10:53 AM,63.0,59.0,87,30.06,9.0,South,4.6,-,0.07,Rain,Light Rain,170,2013-08-25 17:53:00
11:53 AM,64.9,57.9,78,30.05,10.0,Calm,Calm,-,0.00,Rain,Light Rain,0,2013-08-25 18:53:00
12:53 PM,64.0,61.0,90,30.06,10.0,NW,6.9,-,0.03,Rain,Light Rain,310,2013-08-25 19:53:00
1:53 PM,63.0,60.1,90,30.06,10.0,Calm,Calm,-,0.04,Rain,Light Rain,0,2013-08-25 20:53:00
2:53 PM,64.0,61.0,90,30.04,7.0,NNE,3.5,-,0.02,Rain,Light Rain,30,2013-08-25 21:53:00
3:25 PM,64.4,62.6,94,30.22,7.0,NE,4.6,-,0.02,Rain,Light Rain,40,2013-08-25 22:25:00
3:53 PM,64.9,62.1,90,30.02,9.0,Calm,Calm,-,0.02,Rain,Light Rain,0,2013-08-25 22:53:00
4:53 PM,66.9,62.1,84,30.00,10.0,Calm,Calm,-,0.00,,Mostly Cloudy,0,2013-08-25 23:53:00
5:53 PM,66.9,62.1,84,30.00,10.0,Calm,Calm,-,N/A,,Mostly Cloudy,0,2013-08-26 00:53:00
6:53 PM,66.0,61.0,84,30.02,10.0,Calm,Calm,-,N/A,,Overcast,0,2013-08-26 01:53:00
7:53 PM,64.9,62.1,90,30.03,10.0,NW,3.5,-,N/A,,Partly Cloudy,310,2013-08-26 02:53:00
8:53 PM,64.9,63.0,93,30.06,9.0,Calm,Calm,-,0.00,Rain,Light Rain,0,2013-08-26 03:53:00
9:53 PM,64.0,62.1,93,30.06,10.0,NW,3.5,-,0.00,,Overcast,320,2013-08-26 04:53:00
10:53 PM,64.9,63.0,93,30.06,10.0,Calm,Calm,-,0.02,,Overcast,0,2013-08-26 05:53:00
11:53 PM,64.0,62.1,93,30.05,4.0,WSW,4.6,-,0.03,Rain,Rain,240,2013-08-26 06:53:00